sat.trackr.live / text

‹ back to catalog

STARLINK-32420

NORAD 61931 · 2024-207V

PAYLOAD ACTIVE UNKNOWN

§ Identity

Operator
Country
US
Launch date
2024-11-11
Launch site
AFETR
Launch vehicle
Mass (kg)
RCS (m²)

Purposes: comms

External: N2YO · Heavens-Above · Gunter

§ Orbital elements

Epoch: 2026-09-21T07:32:55.969152Z

Period
94.27 min
Inclination
43.0024°
Eccentricity
0.0002026
Mean motion
15.27589969 rev/d
Perigee alt
481.6 km
Apogee alt
484.4 km
Semi-major
6,861.2 km
B*
3.5487e-4
RAAN
256.6749°
Arg perigee
282.3996°
Mean anomaly
77.6629°
Rev number
10,464

§ Raw data

STARLINK-324201 61931U 24207V   26264.31453668  .00009519  00000+0  35487-3 0  99942 61931  43.0024 256.6749 0002026 282.3996  77.6629 15.27589969104646

JSON: /api/v1/satellites/61931 · /tle

For live sub-satellite position, see the globe view (requires WebGL).

§ Visibility from observer

Set your observer location to see the next 7 days of passes ≥ 10°. The values pass through the URL so the page stays shareable.

No JS? Fill the form by hand. The geolocation button needs JavaScript.